Location: Gadern
(49.5873°N, 8.8138°E)
Time: 10:24:43
(UTC+00:00)

ALOS 2 - Pass Details

Date: 19 May 2025
Orbit: 630 x 632 km, 97.9° (Epoch: 23 June)

Event Time Altitude Azimuth Distance (km) Brightness Sun altitude
Exits shadow 22:18:02 34° 123° (ESE) 1,048 3.3 -19.0°
Maximum altitude 22:19:33 50° 70° (ENE) 814 3.1 -19.1°
Drops below altitude 10° 22:23:49 10° 356° (N) 2,028 6.4 -19.3°
Sets 22:26:04 0° 351° (N) 2,941 7.7 -19.4°
